| time (UTC) | temp F | wind direction | speed knots | gust knots | rain 1hr in | rain 24hr in | rain mn in | humidity % | barometer mb |
| 20260504100503 | 48 | 262 | 9.6 | 11.3 | 0.00 | 0.00 | 0.00 | 80 | 1004.6 |
| 20260504082005 | 48 | 240 | 7.8 | 12.2 | 0.00 | 0.00 | 0.00 | 83 | 1005.1 |
| 20260504081503 | 48 | 240 | 7.0 | 11.3 | 0.00 | 0.00 | 0.00 | 83 | 1005.2 |
| 20260504081005 | 48 | 238 | 6.1 | 11.3 | 0.00 | 0.00 | 0.00 | 83 | 1005.3 |
| 20260504050503 | 55 | 241 | 3.5 | 4.3 | 0.00 | 0.00 | 0.00 | 70 | 1006.6 |
| 20260504050006 | 55 | 244 | 3.5 | 4.3 | 0.00 | 0.00 | 0.00 | 70 | 1006.7 |
| 20260504045005 | 55 | 236 | 3.5 | 6.1 | 0.00 | 0.00 | 0.00 | 69 | 1006.9 |
| 20260504044504 | 56 | 236 | 3.5 | 5.2 | 0.00 | 0.00 | 0.00 | 69 | 1006.9 |
| 20260504044005 | 56 | 244 | 3.5 | 4.3 | 0.00 | 0.00 | 0.00 | 69 | 1006.9 |
| 20260504043503 | 56 | 244 | 3.5 | 6.1 | 0.00 | 0.00 | 0.00 | 67 | 1006.9 |
| 20260504043005 | 56 | 237 | 3.5 | 6.1 | 0.00 | 0.00 | 0.00 | 67 | 1007.0 |
| 20260504042504 | 57 | 220 | 3.5 | 7.0 | 0.00 | 0.00 | 0.00 | 66 | 1007.1 |
| 20260504042005 | 57 | 218 | 3.5 | 7.0 | 0.00 | 0.00 | 0.00 | 65 | 1007.0 |
| 20260504041503 | 57 | 228 | 3.5 | 7.0 | 0.00 | 0.00 | 0.00 | 64 | 1007.1 |
| 20260504041005 | 57 | 241 | 3.5 | 7.0 | 0.00 | 0.00 | 0.00 | 64 | 1007.4 |
| 20260504040503 | 57 | 246 | 3.5 | 6.1 | 0.00 | 0.00 | 0.00 | 64 | 1007.5 |
| 20260504040005 | 57 | 219 | 3.5 | 4.3 | 0.00 | 0.00 | 0.00 | 64 | 1007.5 |
| 20260504035503 | 58 | 216 | 3.5 | 4.3 | 0.00 | 0.00 | 0.00 | 63 | 1007.5 |
| 20260504034504 | 58 | 241 | 2.6 | 4.3 | 0.00 | 0.00 | 0.00 | 61 | 1007.5 |
| 20260504034004 | 58 | 239 | 2.6 | 4.3 | 0.00 | 0.00 | 0.00 | 60 | 1007.5 |
| 20260504033504 | 58 | 247 | 3.5 | 4.3 | 0.00 | 0.00 | 0.00 | 60 | 1007.6 |
| 20260504033005 | 58 | 264 | 3.5 | 4.3 | 0.00 | 0.00 | 0.00 | 61 | 1007.7 |
| 20260504032504 | 58 | 254 | 3.5 | 4.3 | 0.00 | 0.00 | 0.00 | 60 | 1007.7 |
| 20260504032005 | 59 | 236 | 3.5 | 4.3 | 0.00 | 0.00 | 0.00 | 60 | 1007.8 |
| 20260504031005 | 59 | 242 | 3.5 | 8.7 | 0.00 | 0.00 | 0.00 | 59 | 1007.9 |
| 20260504030503 | 59 | 261 | 6.1 | 9.6 | 0.00 | 0.00 | 0.00 | 59 | 1007.9 |
| 20260504030005 | 59 | 259 | 7.8 | 12.2 | 0.00 | 0.00 | 0.00 | 59 | 1008.1 |
| 20260504025504 | 60 | 255 | 10.4 | 17.4 | 0.00 | 0.00 | 0.00 | 58 | 1008.4 |
| 20260504025005 | 60 | 258 | 12.2 | 17.4 | 0.00 | 0.00 | 0.00 | 59 | 1008.6 |
| 20260504024005 | 59 | 268 | 13.9 | 20.9 | 0.00 | 0.00 | 0.00 | 60 | 1008.9 |
| 20260504023504 | 60 | 270 | 15.6 | 20.9 | 0.00 | 0.00 | 0.00 | 61 | 1009.0 |
| 20260504023004 | 60 | 263 | 16.5 | 26.1 | 0.00 | 0.00 | 0.00 | 60 | 1009.1 |
| 20260504022504 | 61 | 261 | 17.4 | 26.1 | 0.00 | 0.00 | 0.00 | 56 | 1009.1 |
| 20260504022005 | 62 | 256 | 13.0 | 23.5 | 0.00 | 0.00 | 0.00 | 51 | 1009.0 |
| 20260504020503 | 60 | 305 | 0.9 | 4.3 | 0.00 | 0.00 | 0.00 | 53 | 1008.1 |
| 20260504020005 | 61 | 318 | 0.0 | 1.7 | 0.00 | 0.00 | 0.00 | 51 | 1007.9 |
| 20260504015503 | 61 | 290 | 0.0 | 1.7 | 0.00 | 0.00 | 0.00 | 46 | 1007.7 |
| 20260504015005 | 61 | 290 | 0.0 | 1.7 | 0.00 | 0.00 | 0.00 | 46 | 1007.7 |
| 20260504013503 | 61 | 290 | 0.0 | 0.9 | 0.00 | 0.00 | 0.00 | 48 | 1007.9 |
| 20260504013005 | 61 | 289 | 0.0 | 0.9 | 0.00 | 0.00 | 0.00 | 49 | 1007.9 |
| 20260504011504 | 64 | 288 | 2.6 | 3.5 | 0.00 | 0.00 | 0.00 | 41 | 1008.0 |
| 20260504011004 | 65 | 273 | 2.6 | 3.5 | 0.00 | 0.00 | 0.00 | 38 | 1008.0 |
| 20260504010503 | 65 | 259 | 2.6 | 4.3 | 0.00 | 0.00 | 0.00 | 38 | 1007.9 |
| 20260504010005 | 66 | 270 | 3.5 | 4.3 | 0.00 | 0.00 | 0.00 | 35 | 1008.1 |
| 20260504005503 | 66 | 282 | 2.6 | 4.3 | 0.00 | 0.00 | 0.00 | 34 | 1008.1 |
| 20260504005005 | 66 | 277 | 2.6 | 3.5 | 0.00 | 0.00 | 0.00 | 35 | 1008.0 |
| 20260504003503 | 68 | 276 | 4.3 | 6.1 | 0.00 | 0.00 | 0.00 | 32 | 1008.2 |
| 20260504003005 | 69 | 283 | 4.3 | 8.7 | 0.00 | 0.00 | 0.00 | 32 | 1008.3 |
| 20260504002503 | 69 | 277 | 4.3 | 8.7 | 0.00 | 0.00 | 0.00 | 31 | 1008.3 |
| 20260504002005 | 70 | 280 | 3.5 | 7.0 | 0.00 | 0.00 | 0.00 | 30 | 1008.6 |
| 20260504001005 | 70 | 283 | 2.6 | 6.1 | 0.00 | 0.00 | 0.00 | 31 | 1008.7 |
| 20260504000503 | 70 | 268 | 0.9 | 6.1 | 0.00 | 0.00 | 0.00 | 30 | 1008.6 |
| 20260504000004 | 70 | 249 | 2.6 | 6.1 | 0.00 | 0.00 | 0.00 | 34 | 1008.8 |
| 20260503235504 | 70 | 248 | 2.6 | 6.1 | 0.00 | 0.00 | 0.00 | 30 | 1008.9 |
| 20260503234503 | 70 | 266 | 6.1 | 9.6 | 0.00 | 0.00 | 0.00 | 29 | 1009.1 |
| 20260503233503 | 70 | 313 | 6.1 | 11.3 | 0.00 | 0.00 | 0.00 | 29 | 1009.3 |
| 20260503233005 | 70 | 319 | 7.0 | 12.2 | 0.00 | 0.00 | 0.00 | 29 | 1009.4 |
| 20260503232503 | 71 | 331 | 6.1 | 12.2 | 0.00 | 0.00 | 0.00 | 30 | 1009.5 |
| 20260503232005 | 71 | 340 | 3.5 | 10.4 | 0.00 | 0.00 | 0.00 | 31 | 1009.6 |
| 20260503231005 | 70 | 319 | 4.3 | 9.6 | 0.00 | 0.00 | 0.00 | 32 | 1009.8 |
| 20260503225005 | 69 | 310 | 6.1 | 10.4 | 0.00 | 0.00 | 0.00 | 30 | 1009.9 |
| 20260503224005 | 70 | 281 | 6.1 | 9.6 | 0.00 | 0.00 | 0.00 | 28 | 1009.9 |
| 20260503223503 | 70 | 275 | 6.1 | 10.4 | 0.00 | 0.00 | 0.00 | 29 | 1010.0 |
| 20260503223005 | 70 | 285 | 7.0 | 11.3 | 0.00 | 0.00 | 0.00 | 27 | 1009.9 |
| 20260503222503 | 71 | 287 | 7.8 | 11.3 | 0.00 | 0.00 | 0.00 | 28 | 1010.0 |
| 20260503222005 | 71 | 274 | 7.8 | 12.2 | 0.00 | 0.00 | 0.00 | 28 | 1010.0 |
| 20260503221503 | 72 | 257 | 4.3 | 12.2 | 0.00 | 0.00 | 0.00 | 27 | 1010.1 |
| 20260503220503 | 69 | 216 | 3.5 | 10.4 | 0.00 | 0.00 | 0.00 | 28 | 1010.3 |
| 20260503220005 | 68 | 196 | 6.1 | 10.4 | 0.00 | 0.00 | 0.00 | 29 | 1010.4 |
| 20260503215503 | 69 | 217 | 7.0 | 10.4 | 0.00 | 0.00 | 0.00 | 30 | 1010.4 |
| 20260503215005 | 69 | 277 | 7.8 | 12.2 | 0.00 | 0.00 | 0.00 | 30 | 1010.5 |
| 20260503214503 | 70 | 288 | 7.8 | 12.2 | 0.00 | 0.00 | 0.00 | 29 | 1010.7 |
| 20260503214004 | 69 | 276 | 7.8 | 14.8 | 0.00 | 0.00 | 0.00 | 30 | 1010.7 |
| 20260503213503 | 69 | 281 | 10.4 | 17.4 | 0.00 | 0.00 | 0.00 | 29 | 1010.8 |
| 20260503213005 | 71 | 290 | 7.8 | 17.4 | 0.00 | 0.00 | 0.00 | 25 | 1010.9 |
| 20260503212503 | 70 | 274 | 4.3 | 15.6 | 0.00 | 0.00 | 0.00 | 28 | 1010.9 |
| 20260503212005 | 69 | 288 | 3.5 | 6.1 | 0.00 | 0.00 | 0.00 | 27 | 1011.0 |
| 20260503211504 | 69 | 310 | 3.5 | 7.0 | 0.00 | 0.00 | 0.00 | 33 | 1011.1 |
| 20260503211004 | 68 | 309 | 3.5 | 7.0 | 0.00 | 0.00 | 0.00 | 30 | 1011.2 |
| 20260503210503 | 69 | 332 | 6.1 | 9.6 | 0.00 | 0.00 | 0.00 | 29 | 1011.3 |
| 20260503210005 | 69 | 330 | 7.8 | 14.8 | 0.00 | 0.00 | 0.00 | 29 | 1011.3 |
| 20260503205503 | 69 | 301 | 9.6 | 14.8 | 0.00 | 0.00 | 0.00 | 29 | 1011.4 |
| 20260503205005 | 70 | 297 | 7.0 | 12.2 | 0.00 | 0.00 | 0.00 | 28 | 1011.4 |
| 20260503204503 | 70 | 357 | 4.3 | 10.4 | 0.00 | 0.00 | 0.00 | 28 | 1011.5 |
| 20260503204005 | 69 | 61 | 4.3 | 9.6 | 0.00 | 0.00 | 0.00 | 29 | 1011.6 |
| 20260503203503 | 69 | 36 | 6.1 | 11.3 | 0.00 | 0.00 | 0.00 | 28 | 1011.7 |
| 20260503203004 | 69 | 351 | 4.3 | 11.3 | 0.00 | 0.00 | 0.00 | 34 | 1011.8 |
| 20260503202503 | 69 | 324 | 6.1 | 11.3 | 0.00 | 0.00 | 0.00 | 31 | 1012.1 |
| 20260503201503 | 68 | 324 | 6.1 | 13.0 | 0.00 | 0.00 | 0.00 | 29 | 1012.2 |
| 20260503201005 | 69 | 9 | 4.3 | 9.6 | 0.00 | 0.00 | 0.00 | 30 | 1012.2 |
| 20260503200503 | 70 | 341 | 7.0 | 14.8 | 0.00 | 0.00 | 0.00 | 30 | 1012.3 |
| 20260503200005 | 70 | 346 | 7.0 | 14.8 | 0.00 | 0.00 | 0.00 | 28 | 1012.3 |
| 20260503195503 | 69 | 8 | 6.1 | 12.2 | 0.00 | 0.00 | 0.00 | 29 | 1012.4 |
| 20260503195005 | 68 | 9 | 6.1 | 12.2 | 0.00 | 0.00 | 0.00 | 29 | 1012.5 |
| 20260503194504 | 68 | 343 | 7.0 | 12.2 | 0.00 | 0.00 | 0.00 | 29 | 1012.5 |
| 20260503194005 | 68 | 342 | 6.1 | 11.3 | 0.00 | 0.00 | 0.00 | 30 | 1012.5 |
| 20260503193503 | 68 | 343 | 6.1 | 14.8 | 0.00 | 0.00 | 0.00 | 28 | 1012.6 |
| 20260503193005 | 68 | 337 | 4.3 | 14.8 | 0.00 | 0.00 | 0.00 | 32 | 1012.7 |
| 20260503192503 | 68 | 344 | 6.1 | 10.4 | 0.00 | 0.00 | 0.00 | 32 | 1012.8 |
| 20260503192005 | 68 | 331 | 7.0 | 14.8 | 0.00 | 0.00 | 0.00 | 32 | 1012.9 |
| 20260503191503 | 68 | 316 | 7.0 | 14.8 | 0.00 | 0.00 | 0.00 | 31 | 1013.0 |
| 20260503191005 | 67 | 321 | 7.0 | 13.0 | 0.00 | 0.00 | 0.00 | 29 | 1013.0 |
| 20260503190004 | 67 | 306 | 6.1 | 10.4 | 0.00 | 0.00 | 0.00 | 28 | 1013.2 |
| 20260503185503 | 68 | 312 | 6.1 | 10.4 | 0.00 | 0.00 | 0.00 | 28 | 1013.1 |
| 20260503185005 | 68 | 319 | 7.0 | 12.2 | 0.00 | 0.00 | 0.00 | 28 | 1013.1 |
| 20260503184503 | 69 | 315 | 7.8 | 12.2 | 0.00 | 0.00 | 0.00 | 29 | 1013.2 |
| 20260503184005 | 68 | 312 | 7.0 | 14.8 | 0.00 | 0.00 | 0.00 | 28 | 1013.2 |
| 20260503183004 | 68 | 339 | 7.0 | 13.0 | 0.00 | 0.00 | 0.00 | 29 | 1013.5 |
| 20260503182503 | 68 | 316 | 9.6 | 18.2 | 0.00 | 0.00 | 0.00 | 30 | 1013.6 |
| 20260503182006 | 68 | 314 | 10.4 | 18.2 | 0.00 | 0.00 | 0.00 | 30 | 1013.6 |
| 20260503181504 | 68 | 329 | 7.8 | 14.8 | 0.00 | 0.00 | 0.00 | 30 | 1013.8 |
| 20260503180504 | 67 | 334 | 7.0 | 14.8 | 0.00 | 0.00 | 0.00 | 31 | 1013.8 |
| 20260503180005 | 67 | 338 | 7.0 | 12.2 | 0.00 | 0.00 | 0.00 | 32 | 1013.9 |
| 20260503175503 | 68 | 8 | 7.0 | 12.2 | 0.00 | 0.00 | 0.00 | 31 | 1013.9 |
| 20260503174503 | 67 | 348 | 3.5 | 12.2 | 0.00 | 0.00 | 0.00 | 31 | 1013.8 |
| 20260503174004 | 65 | 322 | 6.1 | 12.2 | 0.00 | 0.00 | 0.00 | 31 | 1013.9 |
| 20260503173503 | 68 | 305 | 7.0 | 12.2 | 0.00 | 0.00 | 0.00 | 32 | 1013.8 |
| 20260503173005 | 66 | 299 | 9.6 | 14.8 | 0.00 | 0.00 | 0.00 | 32 | 1013.9 |
| 20260503172504 | 67 | 308 | 9.6 | 14.8 | 0.00 | 0.00 | 0.00 | 32 | 1014.0 |
| 20260503172004 | 67 | 334 | 6.1 | 14.8 | 0.00 | 0.00 | 0.00 | 31 | 1014.0 |
| 20260503171503 | 67 | 3 | 4.3 | 9.6 | 0.00 | 0.00 | 0.00 | 32 | 1014.1 |
| 20260503171005 | 66 | 8 | 4.3 | 10.4 | 0.00 | 0.00 | 0.00 | 31 | 1014.1 |
| 20260503170503 | 66 | 339 | 6.1 | 11.3 | 0.00 | 0.00 | 0.00 | 32 | 1014.1 |
| 20260503151005 | 60 | 301 | 9.6 | 12.2 | 0.00 | 0.00 | 0.00 | 48 | 1014.8 |
| 20260503150503 | 60 | 298 | 7.8 | 12.2 | 0.00 | 0.00 | 0.00 | 46 | 1014.8 |
| 20260503131005 | 49 | 271 | 4.3 | 8.7 | 0.00 | 0.00 | 0.00 | 67 | 1014.7 |